EW9582 Weather Reports


time (UTC)temp
C
wind
direction
speed
KPH
gust
KPH
rain 1hr
cm
rain 24hr
cm
rain mn
cm
humidity
%
barometer
mb
20260905031516 30 309 9.7 16.1 0.00 0.00 0.00 78 1011.8
20260905030015 30 275 8.0 17.7 0.00 0.00 0.00 78 1011.6
20260905024515 30 296 9.7 16.1 0.00 0.00 0.00 78 1011.5
20260905023019 30 296 12.9 22.5 0.00 0.00 0.00 76 1011.4
20260905021513 30 311 9.7 20.9 0.00 0.00 0.00 76 1011.3
20260905020014 30 299 9.7 20.9 0.00 0.00 0.00 77 1010.9
20260905014513 30 279 9.7 19.3 0.00 0.00 0.00 76 1010.8
20260905013012 30 271 9.7 17.7 0.00 0.00 0.00 76 1010.8
20260905011512 31 279 6.4 22.5 0.00 0.00 0.00 75 1010.6
20260905010013 31 321 11.3 20.9 0.00 0.00 0.00 74 1010.6
20260905004511 31 282 9.7 24.1 0.00 0.00 0.00 74 1010.5
20260905003011 31 267 12.9 22.5 0.00 0.00 0.00 74 1010.3
20260905001510 32 267 9.7 19.3 0.00 0.00 0.00 73 1010.0
20260905000010 32 323 9.7 17.7 0.00 0.00 0.00 71 1009.9
20260904234513 33 279 9.7 17.7 0.00 0.00 0.00 71 1009.8
20260904233010 33 265 8.0 14.5 0.00 0.00 0.00 70 1009.9
20260904231508 33 260 6.4 14.5 0.00 0.00 0.00 68 1009.9
20260904230006 35 249 4.8 12.9 0.00 0.00 0.00 66 1010.1
20260904224505 35 259 3.2 11.3 0.00 0.00 0.00 65 1010.1
20260904223005 34 242 1.6 9.7 0.00 0.00 0.00 64 1010.2
20260904221503 33 200 1.6 8.0 0.00 0.00 0.00 68 1010.3
20260904220003 33 243 3.2 8.0 0.00 0.00 0.00 69 1010.3
20260904214602 33 211 1.6 9.7 0.00 0.00 0.00 69 1010.5
20260904214501 33 211 1.6 9.7 0.00 0.00 0.00 69 1010.5
20260904213058 33 223 3.2 9.7 0.00 0.00 0.00 68 1010.8
20260904211556 34 193 1.6 8.0 0.00 0.00 0.00 68 1010.8
20260904210101 33 207 1.6 9.7 0.00 0.00 0.00 68 1011.0
20260904204556 34 217 1.6 8.0 0.00 0.00 0.00 67 1011.0
20260904203054 34 250 3.2 8.0 0.00 0.00 0.00 66 1011.2
20260904201614 34 254 1.6 9.7 0.00 0.00 0.00 68 1011.5
20260904200053 35 224 3.2 6.4 0.00 0.00 0.00 67 1011.5
20260904194604 35 257 1.6 8.0 0.00 0.00 0.00 67 1011.9
20260904193049 34 207 3.2 8.0 0.00 0.00 0.00 67 1011.8
20260904191554 33 196 3.2 9.7 0.00 0.00 0.00 68 1012.0
20260904190048 33 198 4.8 9.7 0.00 0.00 0.00 67 1012.1
20260904184546 34 225 3.2 6.4 0.00 0.00 0.00 66 1012.2
20260904183045 34 227 3.2 6.4 0.00 0.00 0.00 67 1012.2
20260904181545 34 186 3.2 8.0 0.00 0.00 0.00 67 1012.5
20260904180044 34 205 1.6 6.4 0.00 0.00 0.00 66 1012.6
20260904174546 33 223 1.6 6.4 0.00 0.00 0.00 69 1012.7
20260904173049 33 190 4.8 8.0 0.00 0.00 0.00 68 1012.7
20260904171539 33 192 3.2 6.4 0.00 0.00 0.00 70 1012.6
20260904170035 32 184 1.6 8.0 0.00 0.00 0.00 73 1012.5
20260904164532 32 113 6.4 11.3 0.00 0.00 0.00 73 1012.4
20260904163032 32 147 3.2 8.0 0.00 0.00 0.00 72 1012.3
20260904161528 32 103 1.6 8.0 0.00 0.00 0.00 75 1012.2
20260904160025 31 97 3.2 8.0 0.00 0.00 0.00 75 1012.2
20260904154523 31 141 0.0 4.8 0.00 0.03 0.00 76 1012.2
20260904153021 31 88 0.0 3.2 0.00 0.03 0.00 76 1012.1
20260904151519 30 65 3.2 8.0 0.00 0.03 0.00 77 1012.1
20260904150026 28 338 6.4 11.3 0.00 0.03 0.00 80 1012.1
20260904144511 27 355 8.0 12.9 0.00 0.03 0.00 86 1012.1
20260904143008 26 350 8.0 16.1 0.00 0.03 0.00 87 1012.2
20260904141508 26 5 8.0 12.9 0.00 0.03 0.00 88 1012.2
20260904140007 25 355 6.4 11.3 0.00 0.03 0.00 89 1012.1
20260904134520 25 351 8.0 11.3 0.00 0.03 0.00 90 1011.9
20260904133006 25 343 6.4 11.3 0.00 0.03 0.00 90 1011.8
20260904131506 25 324 6.4 9.7 0.00 0.03 0.00 90 1011.7
20260904130007 25 348 8.0 11.3 0.00 0.03 0.00 90 1011.5
20260904124505 25 355 6.4 11.3 0.00 0.15 0.00 90 1011.5
20260904123002 25 344 8.0 11.3 0.00 0.15 0.00 89 1011.4
20260904121502 25 350 8.0 11.3 0.00 0.15 0.00 89 1011.2
20260904120002 25 344 8.0 12.9 0.00 3.17 0.00 89 1011.2
20260904114602 25 5 8.0 11.3 0.00 3.17 0.00 89 1011.1
20260904113101 25 355 8.0 12.9 0.00 3.17 0.00 89 1011.1
20260904111556 25 5 9.7 14.5 0.00 3.17 0.00 89 1011.0
20260904104554 25 10 6.4 9.7 0.00 5.56 0.00 88 1010.9
20260904103155 25 360 8.0 11.3 0.00 5.56 0.00 88 1010.9
20260904101552 25 340 6.4 9.7 0.00 5.56 0.00 88 1011.0
20260904100053 25 355 4.8 8.0 0.00 5.56 0.00 87 1011.1
20260904094543 25 347 4.8 6.4 0.00 5.56 0.00 87 1011.3
20260904093035 26 343 4.8 6.4 0.00 5.56 0.00 86 1011.4
20260904091535 26 350 4.8 8.0 0.00 5.56 0.00 85 1011.5
20260904090033 26 360 4.8 9.7 0.00 5.56 0.00 86 1011.6
20260904084534 26 339 6.4 8.0 0.00 5.56 0.00 86 1011.7
20260904083041 26 335 6.4 9.7 0.00 5.56 0.00 85 1011.5
20260904081530 26 332 6.4 9.7 0.00 5.56 0.00 85 1011.7
20260904080029 26 337 4.8 8.0 0.00 5.56 0.00 84 1011.6
20260904074527 26 341 6.4 8.0 0.00 5.56 0.00 82 1011.8
20260904073026 26 348 6.4 8.0 0.00 5.56 0.00 82 1011.9
20260904071523 26 355 3.2 6.4 0.00 5.56 0.00 84 1012.0
20260904070019 26 10 4.8 8.0 0.00 5.56 0.00 86 1012.2
20260904064519 26 15 4.8 8.0 0.00 5.56 5.56 87 1012.5
20260904063024 26 355 4.8 6.4 0.00 5.56 5.56 87 1012.7
20260904061519 26 338 4.8 6.4 0.00 5.56 5.56 87 1012.8
20260904060018 27 336 4.8 6.4 0.00 5.56 5.56 86 1012.9
20260904054517 27 329 1.6 3.2 0.00 5.56 5.56 85 1012.9
20260904053020 27 5 1.6 3.2 0.00 5.56 5.56 85 1013.0
20260904051517 27 346 3.2 4.8 0.00 5.56 5.56 85 1013.2
20260904050016 27 360 3.2 4.8 0.00 5.56 5.56 85 1013.3
20260904044518 27 355 3.2 4.8 0.00 5.56 5.56 85 1013.1
20260904043015 27 323 3.2 4.8 0.00 5.56 5.56 85 1012.9
20260904041515 27 335 3.2 6.4 0.00 5.56 5.56 85 1012.7
20260904040016 27 342 3.2 4.8 0.00 5.56 5.56 83 1012.7
20260904034518 27 5 1.6 3.2 0.00 5.56 5.56 79 1012.5
20260904033013 27 5 0.0 0.0 0.00 5.56 5.56 78 1012.4